Regional Weather Roundup
Issued by NWS

Home | Current Version | Previous Version | Graphics & Text | Print | Product List | Glossary On
Versions: 1 2 3 4 5 6 7 8 9 10 11 12 13 14 15 16 17 18 19 20 21 22 23 24 25 26 27 28 29 30 31 32 33 34 35 36 37 38 39 40 41 42 43 44 45 46 47 48 49 50
000
ASUS45 KTFX 261710
RWRMT
MONTANA REGIONAL WEATHER ROUNDUP
NATIONAL WEATHER SERVICE GREAT FALLS MT
1100 AM MDT TUE MAY 26 2015

NOTE: "FAIR" INDICATES FEW OR NO CLOUDS BELOW 12000 FEET WITH NO
SIGNIFICANT WEATHER AND/OR OBSTRUCTIONS TO VISIBILITY.

MTZ001>007-043-261800-
WEST OF THE DIVIDE

CITY           SKY/WX    TMP DP  RH WIND       PRES   REMARKS
KALISPELL      MOSUNNY   62  47  57 VRB3      29.97F
MISSOULA       CLOUDY    55  45  68 CALM      30.01F
BUTTE          MOSUNNY   56  40  55 N6        30.02F
MULLAN PASS    PTSUNNY   45  41  86 VRB5      30.03R
DEER LODGE       N/A     59  45  58 SE5       30.03F
EUREKA           N/A     59  46  63 NE7       30.01F
HAMILTON         N/A     55  46  71 NW3       29.99S
LIBBY            N/A     59  48  67 E3        29.98F
RONAN            N/A     58  50  75 SW6       30.04S
$$

MTZ008-052>055-261800-
SOUTHWEST MONTANA

CITY           SKY/WX    TMP DP  RH WIND       PRES   REMARKS
BOZEMAN        PTSUNNY   57  47  69 VRB3      30.01S
DILLON         SUNNY     57  44  62 VRB5      30.01S
W YELLOWSTONE  PTSUNNY   46  43  87 S8        30.07S
THREE FORKS      N/A     60  33  36 E1        29.99F
TWIN BRIDGES     N/A     57  43  59 SW2       30.00F
$$

MTZ009-010-012-014-046-048-049-054-261800-
EAST SLOPES AND CENTRAL MONTANA

CITY           SKY/WX    TMP DP  RH WIND       PRES   REMARKS
CUT BANK       LGT RAIN  52  50  93 N8        29.99R FOG
GREAT FALLS    LGT RAIN  54  49  83 W5        29.97R
HELENA         SUNNY     63  46  54 VRB5      29.96F
CONRAD           N/A     55  55 100 N7        30.00S
$$

MTZ011-013-016-021-045-047-050-051-261800-
NORTH CENTRAL MONTANA

CITY           SKY/WX    TMP DP  RH WIND       PRES   REMARKS
HAVRE          PTSUNNY   65  50  58 SW10      29.92S
LEWISTOWN      PTSUNNY   63  49  60 MISG      29.95S
N BAR RANCH    FAIR      64  46  52 VRB7      29.97F
CHINOOK          N/A     70  45  40 W8        29.91F
FORT BENTON      N/A     55  54  94 W5        29.97S
$$

MTZ017>020-022>027-061-062-261800-
NORTHEAST MONTANA

CITY           SKY/WX    TMP DP  RH WIND       PRES   REMARKS
GLASGOW        SUNNY     70  45  40 S8        29.91S
JORDAN           N/A     69  47  45 VRB5      29.91S
SIDNEY         SUNNY     70  52  52 S6        29.93F
WOLF POINT     MOSUNNY   71  52  50 CALM      29.91F
MALTA            N/A     70  54  56 CALM      29.88F
POPLAR           N/A     72  52  49 S6        29.92F
SCOBEY           N/A     71  43  36 SE5       29.92F
$$

MTZ028>42-056>058-261800-
SOUTHCENTRAL AND SOUTHEAST MONTANA

CITY           SKY/WX    TMP DP  RH WIND       PRES   REMARKS
BAKER          SUNNY     67  49  52 S9        29.97S
BILLINGS       MOSUNNY   67  46  47 SW10      29.94F
LIVINGSTON     CLOUDY    60  46  59 NW6       29.98S
MILES CITY     SUNNY     68  50  52 SE10      29.93S
BIG TIMBER       N/A     59  46  63 W12G17    29.98S
EKALAKA          N/A     63  49  60 SE12      29.96R
FORSYTH          N/A     68  52  56 SE6       29.92S
LAUREL           N/A     64  44  48 SW5       29.94S
ROUNDUP          N/A     68  47  46 CALM      29.86S
$$

REGIONAL REPORTS...DAKOTAS

CITY           SKY/WX    TMP DP  RH WIND       PRES   REMARKS
WILLISTON      SUNNY     74  47  38 SW7       29.92F
MINOT          SUNNY     78  45  30 NW14G21   29.87F
DICKINSON      SUNNY     71  47  42 W7        29.93
BEACH          FAIR      68  46  45 S13       29.96S
CROSBY         FAIR      75  41  29 W12       29.91F
WATFORD CITY   FAIR      72  46  40 CALM      29.91F
BISMARCK       SUNNY     75  49  39 NW14      29.91S
GRAND FORKS    MOSUNNY   76  53  44 SW7       29.78F
FARGO          MOSUNNY   71  53  52 S8        29.82F
BUFFALO SD       N/A     65  51  60 S9        29.91S
RAPID CITY     MOSUNNY   59  52  77 SW9       29.99S
$$

REGIONAL REPORTS...WYOMING/IDAHO/WASHINGTON

CITY           SKY/WX    TMP DP  RH WIND       PRES   REMARKS
GILLETTE       MOSUNNY   62  47  57 SW5       29.98R
SHERIDAN       SUNNY     66  50  56 VRB5      29.95S
BUFFALO WY     SUNNY     61  47  59 E5        29.99S
CODY           CLOUDY    57  43  58 S3        29.99S
YELLOWSTONE LA   N/A     44  39  82 CALM      30.12S
IDAHO FALLS    PTSUNNY   60  46  59 SW14G22   30.03R
SALMON         MOSUNNY   57  46  67 NE5       29.99F
BOISE          SUNNY     66  49  54 CALM      29.96S
SPOKANE        PTSUNNY   57  49  74 S7        29.98S
$$

REGIONAL REPORTS...ALBERTA

CITY           SKY/WX    TMP DP  RH WIND       PRES   REMARKS
EDMONTON       MOSUNNY   70  46  43 N7        29.96S
CALGARY        CLOUDY    63  43  48 W6        30.00R
LETHBRIDGE     CLOUDY    59  48  67 W21G30    29.96R
MEDICINE HAT   CLOUDY    70  46  43 S8        29.90F
$$

REGIONAL REPORTS...SASKATCHEWAN

CITY           SKY/WX    TMP DP  RH WIND       PRES   REMARKS
SWIFT CURRENT  SUNNY     75  37  25 NE7       29.90S
REGINA         MOSUNNY   79  45  29 N7        29.87S
SASKATOON      PTSUNNY   77  41  27 N7        29.86F
$$


USA.gov is the U.S. government's official web portal to all federal, state and local government web resources and services.